(175854) = 1995 SB84 = 1999 UX43

Discovered at Catalina on 1999-10-29 by CSS.

Orbit

Orbit type: Main Belt

Note: WebGL enabled browser required.

epoch2023-09-13.0
epoch JD2460200.5
perihelion date2022-06-27.16083
perihelion JD2459757.66083
argument of perihelion (°)66.92728
ascending node (°)359.92032
inclination (°)5.98955
eccentricity0.0932974
perihelion distance (AU)2.1829830
Tisserand w.r.t. Jupiter3.5
ΔV w.r.t. Earth (km/sec)9.4
semimajor axis (AU)2.4076064
mean anomaly (°)116.83464
mean daily motion (°/day)0.26383090
aphelion distance (AU)2.632
period (years)3.74
P-vector [x]0.39317123
P-vector [y]0.80079558
P-vector [z]0.45182168
Q-vector [x]-0.91946526
Q-vector [y]0.34250460
Q-vector [z]0.19306536
absolute magnitude16.65
phase slope0.15
uncertainty0
referenceMPEC 2023-Q13
observations used516
oppositions16
arc length (days)10064
first opposition used1995
last opposition used2023
residual rms (arc-secs)0.75
perturbers coarse indicatorM-v
perturbers precise indicator003Ek
first observation date used1995-09-24.0
last observation date used2023-04-14.0
computer nameMPCLINUX
JD of orbit computation2456966.754528
perihelion JD uncertainty (days)2.4938E-04
argument of perihelion uncertainty (°)8.2660E-05
ascending node uncertainty (°)4.1195E-05
inclination uncertainty (°)8.8215E-06
eccentricity uncertainty 4.4857E-08
perihelion distance uncertainty (AU)1.0693E-07
Minimum Orbit Intersection Distances (in AU)
for orbit epoch: 2460200.5, reference: E2023-Q13
Mercury1.87473
Venus1.46779
Earth1.20329
Mars0.63237
Jupiter2.59552
Saturn6.86041
Uranus15.9866
Neptune27.5813

Observations

520 total observations over interval: 1995 09 24.24054 – 2023 04 14.204237
These data are available for download (format description).

Date (UT) J2000 RA J2000 Dec Magn Location Ref
1995 09 24.24054 23 44 24.47 -02 09 02.6 19.2 V 691 – Steward Observatory, Kitt Peak-Spacewatch MPS 32148
1995 09 24.26123 23 44 23.19 -02 09 06.3 19.2 V 691 – Steward Observatory, Kitt Peak-Spacewatch MPS 32148
1995 09 24.28205 23 44 21.89 -02 09 10.1 19.1 V 691 – Steward Observatory, Kitt Peak-Spacewatch MPS 32148
1995 09 29.22484 23 39 31.81 -02 23 22.4 19.7 V 691 – Steward Observatory, Kitt Peak-Spacewatch MPS 32148
1995 09 29.24559 23 39 30.57 -02 23 26.0 19.9 V 691 – Steward Observatory, Kitt Peak-Spacewatch MPS 32148
1995 09 29.26646 23 39 29.36 -02 23 29.1 20.1 V 691 – Steward Observatory, Kitt Peak-Spacewatch MPS 32148
1999 10 12.27119 02 34 58.60 +21 02 58.9 19.5   704 – Lincoln Laboratory ETS, New Mexico MPS 15510
1999 10 12.28489 02 34 57.84 +21 03 00.0 19.4   704 – Lincoln Laboratory ETS, New Mexico MPS 15510
1999 10 12.29851 02 34 57.15 +21 03 00.3 20.0   704 – Lincoln Laboratory ETS, New Mexico MPS 15510
1999 10 12.31212 02 34 56.42 +21 03 01.5 19.4   704 – Lincoln Laboratory ETS, New Mexico MPS 15510
1999 10 12.32630 02 34 55.62 +21 03 01.7 19.5   704 – Lincoln Laboratory ETS, New Mexico MPS 15510
1999 10 22.25061 02 25 43.59 +21 01 08.9 19.2   704 – Lincoln Laboratory ETS, New Mexico MPS 15510
1999 10 22.26363 02 25 42.83 +21 01 08.6 19.5   704 – Lincoln Laboratory ETS, New Mexico MPS 15510
1999 10 22.27659 02 25 41.95 +21 01 07.7 19.2   704 – Lincoln Laboratory ETS, New Mexico MPS 15510
1999 10 22.28948 02 25 41.11 +21 01 04.9 19.4   704 – Lincoln Laboratory ETS, New Mexico MPS 15510
1999 10 29.29996 02 18 18.54 +20 50 31.0 18.5 R 703 – Catalina Sky Survey MPS 13963
1999 10 29.31202 02 18 17.69 +20 50 29.9 18.9 R 703 – Catalina Sky Survey MPS 13963
1999 10 29.32402 02 18 17.06 +20 50 28.2 18.6 R 703 – Catalina Sky Survey MPS 13963
1999 10 29.33602 02 18 16.20 +20 50 26.7 18.2 R 703 – Catalina Sky Survey MPS 13963
1999 11 03.24454 02 12 59.79 +20 39 08.4 19.2   704 – Lincoln Laboratory ETS, New Mexico MPS 13963
1999 11 03.26086 02 12 58.73 +20 39 05.4 19.3   704 – Lincoln Laboratory ETS, New Mexico MPS 13963
1999 11 03.27719 02 12 57.61 +20 39 02.8 19.5   704 – Lincoln Laboratory ETS, New Mexico MPS 13963
1999 11 03.29353 02 12 56.46 +20 38 59.9 19.3   704 – Lincoln Laboratory ETS, New Mexico MPS 13963
2002 07 12.28820 20 09 46.04 -29 18 31.9 20.1   644 – Palomar Mountain/NEAT MPS 59645
2002 07 12.36032 20 09 41.31 -29 18 44.1 19.8   644 – Palomar Mountain/NEAT MPS 59645
2002 07 12.42662 20 09 37.03 -29 18 54.9 20.4   644 – Palomar Mountain/NEAT MPS 59645
2003 12 17.27728 05 29 06.75 +34 03 03.5 19.5   704 – Lincoln Laboratory ETS, New Mexico MPS 93583
2003 12 17.28993 05 29 05.73 +34 03 02.6 19.6   704 – Lincoln Laboratory ETS, New Mexico MPS 93583
2003 12 17.30260 05 29 04.78 +34 03 01.7 20.0   704 – Lincoln Laboratory ETS, New Mexico MPS 93583
2003 12 17.32161 05 29 03.36 +34 03 01.2 19.7   704 – Lincoln Laboratory ETS, New Mexico MPS 93583
2003 12 29.23913 05 15 25.42 +33 41 46.6 19.2   704 – Lincoln Laboratory ETS, New Mexico MPS 95648
2003 12 29.25332 05 15 24.66 +33 41 44.3 19.5   704 – Lincoln Laboratory ETS, New Mexico MPS 95648
2003 12 29.26720 05 15 23.59 +33 41 42.9 19.3   704 – Lincoln Laboratory ETS, New Mexico MPS 95648
2003 12 29.28067 05 15 22.76 +33 41 39.9 19.6   704 – Lincoln Laboratory ETS, New Mexico MPS 95648
2003 12 29.29439 05 15 21.80 +33 41 37.8 19.8   704 – Lincoln Laboratory ETS, New Mexico MPS 95648
2005 05 19.20621 13 54 51.85 -18 35 23.5 20.0   644 – Palomar Mountain/NEAT MPS 135294
2005 05 19.23009 13 54 50.72 -18 35 18.7 19.9   644 – Palomar Mountain/NEAT MPS 135294
2005 05 19.25137 13 54 49.77 -18 35 14.2 20.1   644 – Palomar Mountain/NEAT MPS 135294
2006 08 23.34764 22 09 37.07 -17 02 10.0 19.8 R 644 – Palomar Mountain/NEAT MPS 175919
2006 08 23.36995 22 09 35.62 -17 02 14.2 19.5 R 644 – Palomar Mountain/NEAT MPS 175919
2006 08 23.39063 22 09 34.29 -17 02 17.9 19.8 R 644 – Palomar Mountain/NEAT MPS 175919
2007 12 31.33038 09 11 54.99 +25 14 17.9 19.7 V 703 – Catalina Sky Survey MPS 232536
2007 12 31.33702 09 11 54.70 +25 14 18.5 19.8 V 703 – Catalina Sky Survey MPS 232536
2007 12 31.35629 09 11 54.09 +25 14 23.9 20.2 V 703 – Catalina Sky Survey MPS 232536
2007 12 31.36293 09 11 53.70 +25 14 25.0 19.9 V 703 – Catalina Sky Survey MPS 232536
2008 01 10.34100 09 04 34.31 +25 50 21.2 19.5   704 – Lincoln Laboratory ETS, New Mexico MPS 233289
2008 01 10.35373 09 04 33.68 +25 50 24.2 19.7   704 – Lincoln Laboratory ETS, New Mexico MPS 233289
2008 01 10.36653 09 04 32.95 +25 50 27.4 19.4   704 – Lincoln Laboratory ETS, New Mexico MPS 233289
2008 01 10.37926 09 04 32.14 +25 50 28.5 19.3   704 – Lincoln Laboratory ETS, New Mexico MPS 233289
2008 01 18.29487 08 56 46.10 +26 17 53.7 19.4 V G96 – Mt. Lemmon Survey MPS 234100
2008 01 18.30098 08 56 45.70 +26 17 54.9 19.3 V G96 – Mt. Lemmon Survey MPS 234100
2008 01 18.30543 08 56 45.38 +26 17 55.7 19.4 V G96 – Mt. Lemmon Survey MPS 234100
2008 01 18.30987 08 56 45.09 +26 17 56.9 19.3 V G96 – Mt. Lemmon Survey MPS 234100
2008 01 30.22514 08 43 21.54 +26 48 18.2 19.1 V 703 – Catalina Sky Survey MPS 235264
2008 01 30.23171 08 43 21.00 +26 48 18.2 19.0 V 703 – Catalina Sky Survey MPS 235264
2008 01 30.23823 08 43 20.71 +26 48 18.9 19.2 V 703 – Catalina Sky Survey MPS 235264
2008 01 30.24476 08 43 20.24 +26 48 19.4 19.0 V 703 – Catalina Sky Survey MPS 235264
2008 01 30.27703 08 43 17.90 +26 48 23.9 19.6 V 703 – Catalina Sky Survey MPS 235264
2008 01 30.28504 08 43 17.25 +26 48 24.7 19.4 V 703 – Catalina Sky Survey MPS 235264
2008 01 30.29304 08 43 16.68 +26 48 24.9 19.2 V 703 – Catalina Sky Survey MPS 235264
2008 01 30.30108 08 43 16.17 +26 48 26.9 19.3 V 703 – Catalina Sky Survey MPS 235264
2008 01 30.33631 08 43 13.67 +26 48 28.4 19.4   704 – Lincoln Laboratory ETS, New Mexico MPS 235264
2008 01 30.34877 08 43 12.78 +26 48 30.3 19.5   704 – Lincoln Laboratory ETS, New Mexico MPS 235264
2008 01 30.36122 08 43 11.92 +26 48 30.8 19.3   704 – Lincoln Laboratory ETS, New Mexico MPS 235264
2008 01 30.37385 08 43 10.96 +26 48 32.4 19.4   704 – Lincoln Laboratory ETS, New Mexico MPS 235264
2008 01 30.38743 08 43 09.98 +26 48 34.3 19.9   704 – Lincoln Laboratory ETS, New Mexico MPS 235264
2008 02 03.18982 08 38 51.10 +26 54 00.5 19.6 V 703 – Catalina Sky Survey MPS 236118
2008 02 03.19613 08 38 50.64 +26 54 01.0 19.4 V 703 – Catalina Sky Survey MPS 236118
2008 02 03.20245 08 38 50.20 +26 54 02.5 19.4 V 703 – Catalina Sky Survey MPS 236118
2008 02 03.20880 08 38 49.77 +26 54 02.4 19.0 V 703 – Catalina Sky Survey MPS 236118
2008 02 06.27887 08 35 26.08 +26 56 40.8 19.4   704 – Lincoln Laboratory ETS, New Mexico MPS 236118
2008 02 06.29116 08 35 25.25 +26 56 41.4 19.7   704 – Lincoln Laboratory ETS, New Mexico MPS 236118
2008 02 06.30343 08 35 24.41 +26 56 42.2 19.6   704 – Lincoln Laboratory ETS, New Mexico MPS 236118
2008 02 06.31570 08 35 23.58 +26 56 42.5 19.5   704 – Lincoln Laboratory ETS, New Mexico MPS 236118
2008 02 12.26609 08 29 15.50 +26 57 13.0 19.6 V 703 – Catalina Sky Survey MPS 237346
2008 02 12.27266 08 29 15.07 +26 57 13.5 19.9 V 703 – Catalina Sky Survey MPS 237346
2008 02 12.27924 08 29 14.74 +26 57 12.6 19.9 V 703 – Catalina Sky Survey MPS 237346
2008 02 12.28582 08 29 14.24 +26 57 13.1 19.5 V 703 – Catalina Sky Survey MPS 237346
2008 02 13.16134 08 28 24.29 +26 56 45.1 19.7   704 – Lincoln Laboratory ETS, New Mexico MPS 237346
2008 02 13.17316 08 28 23.53 +26 56 45.5 19.9   704 – Lincoln Laboratory ETS, New Mexico MPS 237346
2008 02 13.18500 08 28 22.82 +26 56 45.0 20.0   704 – Lincoln Laboratory ETS, New Mexico MPS 237346
2008 02 13.19684 08 28 22.13 +26 56 44.5 19.8   704 – Lincoln Laboratory ETS, New Mexico MPS 237346
2008 02 13.20870 08 28 21.40 +26 56 44.4 19.9   704 – Lincoln Laboratory ETS, New Mexico MPS 237346
2008 02 27.18124 08 17 55.93 +26 33 20.7 21.0 V 703 – Catalina Sky Survey MPS 240554
2008 02 27.18846 08 17 55.68 +26 33 19.6 20.4 V 703 – Catalina Sky Survey MPS 240554
2008 02 27.19564 08 17 55.39 +26 33 19.7 21.3 V 703 – Catalina Sky Survey MPS 240554
2008 02 27.20282 08 17 55.24 +26 33 18.7 20.3 V 703 – Catalina Sky Survey MPS 240555
2010 09 01.27665 00 43 58.00 +04 19 49.4 20.1 V 291 – LPL/Spacewatch II MPS 346970
